Stations météo

réclame
Mon MeteoGroup
Kleine Brogel, Belgique (6479): Température de l'air & dewpoint: 17.09.2017 23:00:00 - 23.09.2017 23:00:00 (CEST)Kleine Brogel, Belgique (6479): Vitesse du vent & gusts: 17.09.2017 23:00:00 - 23.09.2017 23:00:00 (CEST)Kleine Brogel, Belgique (6479): Direction du vent: 17.09.2017 23:00:00 - 23.09.2017 23:00:00 (CEST)Kleine Brogel, Belgique (6479): reduced air pressure: 17.09.2017 23:00:00 - 23.09.2017 23:00:00 (CEST)Kleine Brogel, Belgique (6479): visibility: 17.09.2017 23:00:00 - 23.09.2017 23:00:00 (CEST)
Date & Time tt [°C] td [°C] ff [km/h] ff [knt] fx [km/h] fx [knt] dd ppp [hPa] vv [km]
23.09.2017 23:00:00 8,5 8,0 0 0 - - N 1023,3 -
23.09.2017 22:00:00 9,1 8,7 4 2 0 0 N 1023,7 0,1
23.09.2017 21:00:00 10,1 9,1 4 2 0 0 N 1023,5 8
23.09.2017 20:00:00 12,0 9,9 0 0 - - N 1023,2 5
23.09.2017 19:00:00 14,6 9,8 4 2 11 6 N 1023,2 19
23.09.2017 18:00:00 16,6 9,9 7 4 11 6 E 1023,0 20
23.09.2017 17:00:00 17,6 9,6 4 2 - - N 1023,2 20
23.09.2017 16:00:00 17,3 9,3 8 4 14 8 NE 1023,8 10
23.09.2017 15:00:00 16,0 8,9 7 4 11 6 N 1024,7 20
23.09.2017 14:00:00 14,7 10,2 4 2 - - N 1024,9 13
23.09.2017 13:00:00 12,0 11,4 5 3 11 6 ENE 1025,4 9
23.09.2017 12:00:00 11,3 11,3 5 3 7 4 E 1025,5 1,7
23.09.2017 11:00:00 11,1 11,1 4 2 - - N 1025,7 0,4
23.09.2017 10:00:00 9,8 9,8 2 1 7 4 - 1025,4 0,1
23.09.2017 09:00:00 8,8 8,7 0 0 7 4 N 1025,0 0,1
23.09.2017 08:00:00 5,1 5,1 4 2 - - N 1025,2 0,2
23.09.2017 07:00:00 5,1 5,1 4 2 4 2 N 1024,9 0,1
23.09.2017 06:00:00 5,6 5,4 4 2 4 2 N 1024,7 0,1
23.09.2017 05:00:00 6,8 6,6 4 2 - - N 1024,5 0,2
23.09.2017 04:00:00 7,1 6,9 4 2 4 2 N 1024,7 0,2
23.09.2017 03:00:00 7,4 7,1 4 2 4 2 N 1024,5 0,1
23.09.2017 02:00:00 8,5 8,3 4 2 - - N 1024,2 0,1
23.09.2017 01:00:00 9,0 8,8 4 2 4 2 N 1024,0 0,1
23.09.2017 00:00:00 10,3 9,8 4 2 7 4 N 1023,8 0,1
22.09.2017 23:00:00 12,0 11,2 5 3 - - W 1023,7 2,7
22.09.2017 22:00:00 14,5 12,3 4 2 11 6 N 1023,2 20
22.09.2017 21:00:00 15,6 12,8 4 2 11 6 N 1022,8 20
22.09.2017 20:00:00 15,1 13,6 5 3 - - W 1022,2 10
22.09.2017 19:00:00 16,8 12,0 7 4 18 10 WSW 1021,6 20
22.09.2017 18:00:00 18,2 12,3 11 6 18 10 SW 1021,2 20
22.09.2017 17:00:00 17,6 12,7 11 6 - - WSW 1021,1 15
22.09.2017 16:00:00 18,0 13,3 11 6 18 10 SW 1021,0 20
22.09.2017 15:00:00 19,0 10,6 14 8 18 10 WSW 1020,7 20
22.09.2017 14:00:00 19,1 10,8 11 6 - - WSW 1020,7 20
22.09.2017 13:00:00 18,2 10,0 4 2 14 8 N 1020,6 15
22.09.2017 12:00:00 17,1 10,8 4 2 7 4 N 1020,7 15
22.09.2017 11:00:00 15,0 11,2 4 2 - - N 1020,7 15
22.09.2017 10:00:00 13,3 10,9 4 2 7 4 N 1020,5 15
22.09.2017 09:00:00 11,1 10,0 4 2 7 4 N 1020,3 15
22.09.2017 08:00:00 7,6 7,4 4 2 - - N 1020,2 15
22.09.2017 07:00:00 7,5 7,2 4 2 4 2 N 1019,7 8
22.09.2017 06:00:00 7,6 7,3 4 2 4 2 N 1019,7 15
22.09.2017 05:00:00 8,0 7,6 4 2 - - N 1019,7 1,5
22.09.2017 04:00:00 8,3 7,7 4 2 7 4 - 1019,7 4,8
22.09.2017 03:00:00 8,3 8,0 4 2 4 2 N 1020,0 6
22.09.2017 02:00:00 8,3 8,0 4 2 - - N 1020,1 1,5
22.09.2017 01:00:00 8,6 8,1 0 0 0 0 N 1020,0 4,2
22.09.2017 00:00:00 9,0 8,5 0 0 0 0 N 1019,8 0,1
21.09.2017 23:00:00 9,8 9,3 0 0 - - N 1020,0 10
21.09.2017 22:00:00 10,5 9,5 2 1 4 2 - 1019,8 7
21.09.2017 21:00:00 11,6 10,0 0 0 0 0 N 1019,7 20
21.09.2017 20:00:00 13,3 9,7 2 1 - - - 1019,3 0,6
21.09.2017 19:00:00 15,8 9,5 4 2 11 6 N 1019,1 20
21.09.2017 18:00:00 17,8 8,5 4 2 14 8 N 1019,0 20
21.09.2017 17:00:00 18,7 8,7 7 4 - - SE 1019,1 20
21.09.2017 16:00:00 17,9 7,4 4 2 14 8 N 1019,3 20
21.09.2017 15:00:00 17,9 8,5 7 4 14 8 S 1019,7 20
21.09.2017 14:00:00 18,1 9,0 7 4 - - S 1020,1 20
21.09.2017 13:00:00 17,7 8,9 11 6 18 10 SSW 1020,6 20
21.09.2017 12:00:00 17,2 8,8 11 6 18 10 SSW 1020,8 20
21.09.2017 11:00:00 14,8 8,4 7 4 - - SSW 1021,2 20
21.09.2017 10:00:00 13,4 8,7 7 4 18 10 SSW 1021,2 20
21.09.2017 09:00:00 - - - - - - - - -
21.09.2017 08:00:00 8,3 7,9 47 25 - - N 1021,0 20
21.09.2017 07:00:00 8,5 7,2 4 2 11 6 N 1020,8 20
21.09.2017 06:00:00 8,6 7,3 4 2 11 6 N 1020,8 20
21.09.2017 05:00:00 8,6 7,5 5 3 - - SSW 1021,0 10
21.09.2017 04:00:00 8,9 7,8 4 2 11 6 N 1021,1 20
21.09.2017 03:00:00 9,3 8,1 4 2 11 6 N 1021,2 19
21.09.2017 02:00:00 9,3 8,0 4 2 - - N 1021,2 20
21.09.2017 01:00:00 9,7 8,4 4 2 11 6 N 1021,3 20
21.09.2017 00:00:00 10,8 9,0 4 2 11 6 N 1021,2 20
20.09.2017 23:00:00 11,3 9,3 4 2 - - N 1021,2 20
20.09.2017 22:00:00 12,1 9,6 4 2 4 2 N 1021,0 19
20.09.2017 21:00:00 13,1 9,8 4 2 7 4 N 1021,0 20
20.09.2017 20:00:00 14,1 10,1 4 2 - - N 1020,7 20
20.09.2017 19:00:00 15,3 9,8 4 2 14 8 N 1020,5 20
20.09.2017 18:00:00 17,2 9,1 4 2 7 4 N 1020,2 25
20.09.2017 17:00:00 17,4 8,8 4 2 - - N 1020,5 20
20.09.2017 16:00:00 16,9 9,2 11 6 22 12 WSW 1020,8 20
20.09.2017 15:00:00 17,1 8,5 18 10 29 16 WSW 1020,8 20
20.09.2017 14:00:00 15,9 9,0 11 6 - - WSW 1021,2 20
20.09.2017 13:00:00 15,0 8,8 14 8 25 14 SW 1021,6 20
20.09.2017 12:00:00 14,1 9,6 11 6 22 12 W 1021,7 20
20.09.2017 11:00:00 14,3 9,5 14 8 - - SW 1021,7 15
20.09.2017 10:00:00 13,3 10,2 13 7 22 12 SW 1021,7 10
20.09.2017 09:00:00 11,8 10,5 7 4 14 8 SW 1021,5 5
20.09.2017 08:00:00 10,6 10,0 11 6 - - SW 1021,3 4,0
20.09.2017 07:00:00 10,6 10,5 8 4 14 8 SW 1021,2 4,0
20.09.2017 06:00:00 10,6 10,5 7 4 11 6 SW 1021,2 4,0
20.09.2017 05:00:00 10,0 9,7 4 2 - - N 1021,3 1,9
20.09.2017 04:00:00 10,6 10,4 4 2 7 4 N 1021,1 3,1
20.09.2017 03:00:00 10,1 9,9 4 2 7 4 N 1021,2 2,9
20.09.2017 02:00:00 10,3 10,2 7 4 - - SW 1021,6 2,2
20.09.2017 01:00:00 10,3 10,3 4 2 7 4 N 1021,6 1,5
20.09.2017 00:00:00 10,6 10,5 5 3 7 4 W 1021,7 3,0
19.09.2017 23:00:00 11,5 11,0 4 2 - - - 1021,7 1,2
19.09.2017 22:00:00 11,5 11,0 4 2 7 4 N 1021,3 0,5
19.09.2017 21:00:00 13,0 11,1 4 2 7 4 - 1021,1 10
19.09.2017 20:00:00 13,1 11,3 4 2 - - N 1020,5 11
19.09.2017 19:00:00 13,6 10,4 4 2 4 2 N 1020,1 20
19.09.2017 18:00:00 16,2 9,2 4 2 11 6 N 1019,6 20
19.09.2017 17:00:00 16,6 8,6 7 4 - - N 1019,3 20
19.09.2017 16:00:00 16,3 9,3 11 6 22 12 NNW 1019,2 20
19.09.2017 15:00:00 15,8 9,4 9 5 18 10 NNW 1019,3 10
19.09.2017 14:00:00 16,0 9,7 11 6 - - NNW 1019,2 10
19.09.2017 13:00:00 14,2 10,6 4 2 11 6 N 1019,2 10
19.09.2017 12:00:00 11,6 10,4 5 3 11 6 NW 1019,0 3,0
19.09.2017 11:00:00 10,6 10,5 5 3 - - NNW 1018,6 1,8
19.09.2017 10:00:00 10,6 10,5 7 4 18 10 NNW 1017,8 1,4
19.09.2017 09:00:00 10,6 10,4 11 6 18 10 W 1017,0 2,8
19.09.2017 08:00:00 10,2 10,0 7 4 - - W 1016,7 2,8
19.09.2017 07:00:00 10,3 10,0 7 4 18 10 WSW 1016,2 2,8
19.09.2017 06:00:00 10,1 10,0 11 6 18 10 WSW 1016,0 3,5
19.09.2017 05:00:00 10,1 10,0 14 8 - - WSW 1016,0 3,2
19.09.2017 04:00:00 10,1 10,0 13 7 18 10 SW 1015,8 3,2
19.09.2017 03:00:00 10,3 10,1 11 6 22 12 SW 1015,8 3,4
19.09.2017 02:00:00 10,1 10,1 11 6 - - SW 1015,8 3,0
19.09.2017 01:00:00 9,8 9,7 11 6 14 8 SW 1015,8 2,9
19.09.2017 00:00:00 10,1 10,0 9 5 18 10 SW 1015,8 4,9
18.09.2017 23:00:00 10,5 10,3 9 5 - - SW 1015,7 4,7
18.09.2017 22:00:00 10,8 10,4 7 4 18 10 SW 1015,6 5
18.09.2017 21:00:00 11,2 10,8 11 6 22 12 SW 1015,6 16
18.09.2017 20:00:00 11,3 10,9 11 6 - - SW 1015,2 14
18.09.2017 19:00:00 11,3 10,8 7 4 18 10 SW 1014,8 20
18.09.2017 18:00:00 12,4 11,5 14 8 22 12 SW 1014,5 20
18.09.2017 17:00:00 11,4 10,4 11 6 - - WSW 1014,6 20
18.09.2017 16:00:00 10,8 10,3 11 6 22 12 SW 1014,7 20
18.09.2017 15:00:00 10,3 9,7 5 3 29 16 NW 1014,3 4,0
18.09.2017 14:00:00 14,6 11,4 13 7 - - S 1014,0 10
18.09.2017 13:00:00 15,4 10,7 15 8 29 16 SSW 1014,2 10
18.09.2017 12:00:00 14,1 10,4 16 9 25 14 SW 1014,3 10
18.09.2017 11:00:00 12,6 10,4 18 10 - - SW 1014,5 20
18.09.2017 10:00:00 11,1 10,0 11 6 22 12 SW 1014,5 10
18.09.2017 09:00:00 9,8 9,1 11 6 18 10 SW 1014,2 12
18.09.2017 08:00:00 9,3 8,7 7 4 - - SW 1014,0 12
18.09.2017 07:00:00 8,8 8,4 7 4 14 8 SSW 1013,7 6
18.09.2017 06:00:00 8,5 8,0 7 4 14 8 SSW 1013,6 12
18.09.2017 05:00:00 9,1 8,4 7 4 - - SW 1013,7 9
18.09.2017 04:00:00 9,3 8,7 7 4 14 8 SSW 1013,7 9
18.09.2017 03:00:00 9,6 8,8 11 6 14 8 SSW 1013,8 13
18.09.2017 02:00:00 9,6 9,1 4 2 - - N 1013,8 16
18.09.2017 01:00:00 9,9 9,2 4 2 11 6 N 1013,8 19
18.09.2017 00:00:00 9,8 8,9 4 2 22 12 N 1013,8 16
17.09.2017 23:00:00 11,3 9,3 7 4 - - WSW 1013,8 10

tt = Température de l'air
td = dewpoint
ff = Vitesse du vent
fx = gusts
dd = Direction du vent
ppp = reduced air pressure
vv = visibility

stations d'obs. à proximité